Regional Weather Roundup
Issued by NWS

Home | Current Version | Previous Version | Text Only | Print | Product List | Glossary On
Versions: 1 2 3 4 5 6 7 8 9 10 11 12 13 14 15 16 17 18 19 20 21 22 23 24 25 26 27 28 29 30 31 32 33 34 35 36 37 38 39 40 41 42 43 44 45 46 47 48 49 50
000
ASUS43 KDTX 070601
RWRMI
MICHIGAN HOURLY REGIONAL WEATHER ROUNDUP
NATIONAL WEATHER SERVICE DETROIT/PONTIAC MI
200 AM EDT THU MAY 07 2015

NOTE: "FAIR" INDICATES FEW OR NO CLOUDS BELOW 12,000 FEET WITH NO
SIGNIFICANT WEATHER AND/OR OBSTRUCTION TO VISIBILITY.

MIZ047>049-052>055-059>063-066>070-074>076-081>083-070700-
SOUTHEAST LOWER MICHIGAN

CITY           SKY/WX    TMP DP  RH WIND       PRES   REMARKS
ADRIAN         CLEAR     54  52  93 NE3       30.18S FOG
6HR MIN TEMP:  53; 6HR MAX TEMP:  65;

ALMA           CLEAR     57  54  89 CALM      30.16S
ANN ARBOR      CLEAR     51  50  96 CALM      30.17F FOG
BAD AXE        CLEAR     51  45  79 S5        30.19F
CARO           CLEAR     54  52  90 CALM      30.17F FOG
DETROIT CITY   CLEAR     57  54  89 CALM      30.18S
6HR MIN TEMP:  57; 6HR MAX TEMP:  67;

DETROIT        MOCLDY    58  54  86 CALM      30.18F
6HR MIN TEMP:  57; 6HR MAX TEMP:  68;

FLINT          CLEAR     58  55  90 S5        30.17S FOG
6HR MIN TEMP:  57; 6HR MAX TEMP:  74;

GROSSE ILE     CLEAR     54  52  94 CALM      30.16F FOG
HILLSDALE      CLEAR     60  58  93 SE7       30.17S FOG
HOWELL         CLEAR     58  57  96 SE3       30.17F FOG
6HR MIN TEMP:  57; 6HR MAX TEMP:  70;


CITY           SKY/WX    TMP DP  RH WIND       PRES   REMARKS
JACKSON        CLEAR     56  54  93 S5        30.17S FOG
6HR MIN TEMP:  56; 6HR MAX TEMP:  69;

LAMBERTVILLE   FOG       52  50  93 CALM      30.17F VSB 1
LANSING        CLEAR     61  57  87 SE7       30.17R FOG
6HR MIN TEMP:  61; 6HR MAX TEMP:  72;

LAPEER         FAIR      52  51  97 CALM      30.18S FOG
MASON          CLEAR     57  56  95 S6        30.17S FOG
MONROE         FOG       50  50 100 CALM      30.15F VSB 1
MT. CLEMENS    FOG       54  54 100 CALM      30.16F VSB 3/4
PONTIAC        FOG       55  54  96 CALM      30.17F VSB 3/4
6HR MIN TEMP:  55; 6HR MAX TEMP:  66;

PORT HOPE        N/A     51  40  65 S7        30.17S
6HR MIN TEMP:  50; 6HR MAX TEMP:  53;

PORT HURON     CLEAR     46  46 100 CALM      30.19F FOG
TRI CITIES     MOCLDY    55  50  83 NE3       30.17S
6HR MIN TEMP:  54; 6HR MAX TEMP:  65;

MIDLAND        MOCLDY    52  50  91 CALM      30.16S
TROY           CLEAR     59  57  92 CALM      30.20S FOG
SAGINAW HB     MOCLDY    55  52  88 E5        30.16S
$$
MIZ043>046-050>051-056>058-064>065-071>073-077>080-070700-
SOUTHWEST LOWER MICHIGAN

CITY           SKY/WX    TMP DP  RH WIND       PRES   REMARKS
BATTLE CREEK   CLEAR     62  57  83 SE6       30.16S
6HR MIN TEMP:  62; 6HR MAX TEMP:  75;

BENTON HARBOR  PTCLDY    64  61  90 SE9       30.10S FOG
6HR MIN TEMP:  64; 6HR MAX TEMP:  74;

BIG RAPIDS     CLEAR     60  56  88 CALM      30.14S
6HR MIN TEMP:  59; 6HR MAX TEMP:  73;

COLDWATER      CLEAR     59  55  86 SE6       30.15F
6HR MIN TEMP:  59; 6HR MAX TEMP:  69;

FREMONT        FAIR      64  59  83 SE5       30.11F
HOLLAND        PTCLDY    65  60  84 SE10      30.11F
6HR MIN TEMP:  65; 6HR MAX TEMP:  76;

GRAND RAPIDS   PTCLDY    63  58  83 SE7       30.13S
6HR MIN TEMP:  63; 6HR MAX TEMP:  72;

IONIA          FAIR      61  59  94 SE8       30.14S FOG
KALAMAZOO      PTCLDY    62  57  83 SE5       30.15S HAZE
6HR MIN TEMP:  62; 6HR MAX TEMP:  76;

LUDINGTON      PTCLDY    62  57  84 SE5       30.10S
6HR MIN TEMP:  56; 6HR MAX TEMP:  68;

MARSHALL       CLEAR     58  56  92 E6        30.15F
MOUNT PLEASANT MOCLDY    55  51  86 CALM      30.16S
6HR MIN TEMP:  55; 6HR MAX TEMP:  73;

MUSKEGON       PTCLDY    66  60  81 SE9       30.10F
6HR MIN TEMP:  65; 6HR MAX TEMP:  75;

SOUTH HAVEN    MOCLDY    66  61  82 SE7       30.10F HAZE
$$
MIZ016>042-070700-
NORTHERN LOWER MICHIGAN

CITY           SKY/WX    TMP DP  RH WIND       PRES   REMARKS
ALPENA         CLEAR     48  42  80 S5        30.17S
6HR MIN TEMP:  47; 6HR MAX TEMP:  56;

BEAVER ISLAND  CLEAR     46  41  84 E5        30.11F
6HR MIN TEMP:  45; 6HR MAX TEMP:  60;

BELLAIRE       CLOUDY    53  47  80 CALM      30.12F
6HR MIN TEMP:  51; 6HR MAX TEMP:  73;

CADILLAC       PTCLDY    60  53  79 E5        30.14S
CHARLEVOIX     PTCLDY    55  43  65 SE5       30.14F
6HR MIN TEMP:  53; 6HR MAX TEMP:  65;

FRANKFORT      MOCLDY    58  49  69 CALM      30.09F
GAYLORD        PTCLDY    55  51  86 S6        30.15S
6HR MIN TEMP:  55; 6HR MAX TEMP:  69;

GRAYLING       PTCLDY    52  48  86 CALM      30.16F
6HR MIN TEMP:  50; 6HR MAX TEMP:  71;

HARBOR SPRINGS CLEAR     54  45  71 CALM      30.13S
HOUGHTON LAKE  PTCLDY    54  48  80 SE5       30.16S
6HR MIN TEMP:  53; 6HR MAX TEMP:  70;

MANISTEE       PTCLDY    54  48  82 E6        30.10F
OSCODA         CLEAR     45  40  84 CALM      30.18S
PELLSTON       CLEAR     47  42  83 CALM      30.14S
6HR MIN TEMP:  47; 6HR MAX TEMP:  69;

ROGERS CITY    CLEAR     54  48  78 SE8       30.16S
TRAVERSE CITY  PTCLDY    53  42  66 CALM      30.10F
6HR MIN TEMP:  52; 6HR MAX TEMP:  62;

$$
MIZ007>008-015-070700-
EASTERN UPPER MICHIGAN

CITY           SKY/WX    TMP DP  RH WIND       PRES   REMARKS
KINROSS        CLEAR     50  43  76 SE9       30.14F
6HR MIN TEMP:  50; 6HR MAX TEMP:  63;

MACKINAC ISLAN CLEAR     42  38  86 SE7       30.13S
6HR MIN TEMP:  42; 6HR MAX TEMP:  46;

NEWBERRY       CLEAR     50  40  69 E12       30.11F
6HR MIN TEMP:  50; 6HR MAX TEMP:  65;

S. S. MARIE    CLEAR     51  41  68 E3        30.15S
6HR MIN TEMP:  51; 6HR MAX TEMP:  64;

MUNISING         N/A     57  39  51 S9        30.07F
6HR MIN TEMP:  57; 6HR MAX TEMP:  70;

$$
MIZ004>006-011>014-085-070700-
CENTRAL UPPER MICHIGAN

CITY           SKY/WX    TMP DP  RH WIND       PRES   REMARKS
MANISTIQUE     MOCLDY    48  41  76 CALM      30.10S
6HR MIN TEMP:  46; 6HR MAX TEMP:  57;

ESCANABA       PTCLDY    46  39  76 CALM      30.08F
6HR MIN TEMP:  45; 6HR MAX TEMP:  57;

MENOMINEE      MOCLDY    48  39  71 CALM      30.07F
6HR MIN TEMP:  48; 6HR MAX TEMP:  57;

SAWYER-GWINN   PTCLDY    51  42  72 S8        30.08F
6HR MIN TEMP:  51; 6HR MAX TEMP:  65;

$$
MIZ001>003-009>011-084-070700-
WESTERN UPPER MICHIGAN

CITY           SKY/WX    TMP DP  RH WIND       PRES   REMARKS
IRON MOUNTAIN  PTCLDY    51  46  83 SE6       30.06F
6HR MIN TEMP:  51; 6HR MAX TEMP:  66;

HOUGHTON       PTCLDY    55  44  66 SE6       30.01F
6HR MIN TEMP:  52; 6HR MAX TEMP:  58;

COPPER HARBOR    N/A     56  45  66 SW12G18   30.00F
6HR MIN TEMP:  56; 6HR MAX TEMP:  63;

IRONWOOD       MOCLDY    64  55  72 S14G20    29.94F
6HR MIN TEMP:  64; 6HR MAX TEMP:  72;

$$

ABBREVIATIONS USED IN REMARKS
   TC - TEMPERATURE IN CELSIUS
  WCI - WIND CHILL INDEX
   HX - HEAT INDEX
  VSB - VISIBILITY




USA.gov is the U.S. government's official web portal to all federal, state and local government web resources and services.